Location: Essômes
(49.0288°N, 3.3757°E)
Time: 08:37:35
(UTC+00:00)

Daily predictions for brighter satellites

Satellite Brightness Start Highest point End
(mag) Time Altitude Azimuth Time Altitude Azimuth Time Altitude Azimuth
ATLAS 3B R/B 3.2 19:53:26 10° NW 20:01:18 75° NE 20:09:06 10° SE
BREEZE-M DEB (TANK) 4.1 19:59:14 10° SSW 20:02:27 34° SE 20:09:20 10° E
Aureole 3 Rocket 3.9 20:02:57 10° NNE 20:06:11 30° ENE 20:10:13 10° SE
Cosmos 1980 3.9 20:00:46 10° SSW 20:06:24 81° WNW 20:12:06 10° NNE
Cosmos 923 Rocket 4.3 20:02:15 10° S 20:07:21 50° ESE 20:12:30 10° NNE
USA 306 4.0 20:04:06 10° WNW 20:07:34 38° N 20:11:14 10° ENE
SPOT 5 2.9 20:03:33 10° SSE 20:08:08 57° ENE 20:12:32 10° N
Cosmos 1464 Rocket 4.1 20:05:52 10° N 20:12:15 89° E 20:18:30 10° S
Meteor 2-2 Rocket 4.4 20:06:36 10° S 20:12:36 74° E 20:18:37 10° NNE
Okean O Rocket 2.8 20:12:40 10° S 20:16:53 43° W 20:21:09 10° NNW
Terra 2.5 20:14:20 10° SE 20:18:44 41° ENE 20:23:08 10° N
USA 234 4.4 20:12:47 10° ENE 20:18:57 45° N 20:25:06 10° WNW
Cosmos 1656 Rocket 4.1 20:16:49 10° NNW 20:22:08 51° NE 20:27:23 10° SE
Cosmos 1371 Rocket 4.3 20:17:31 10° NNW 20:22:49 60° ENE 20:28:03 10° SE
ERS-1 Rocket 3.3 20:19:19 10° SSE 20:24:12 55° ENE 20:29:08 10° N
MOS 1 4.4 20:19:15 10° SSE 20:24:56 81° WSW 20:30:39 10° NNW
ATLAS 2AS CENTAUR R/B 3.1 20:18:08 10° SW 20:25:32 79° NW 20:32:40 10° NE
SPOT 3 Rocket 4.2 20:24:09 10° SE 20:28:58 43° ENE 20:33:49 10° N
USA 59 Rocket 2.4 20:28:36 10° N 20:29:45 11° NNE 20:30:58 10° NE
Cosmos 1782 3.4 20:26:06 10° SSW 20:29:50 57° WNW 20:33:38 10° N
IRS-1A Rocket 4.3 20:26:02 10° SSE 20:31:42 81° ENE 20:37:17 10° NNW
Meteor 1-26 Rocket 4.4 20:27:25 10° S 20:33:23 67° E 20:39:22 10° NNE
USA 281 3.7 20:27:34 10° SE 20:33:54 53° NE 20:40:17 10° NNW
Cosmos 1943 Rocket 3.2 20:28:57 10° NW 20:34:16 42° WSW 20:39:32 10° S
Cosmos 1420 Rocket 4.1 20:30:01 10° NNW 20:35:23 86° ENE 20:40:30 11° SSE
Cosmos 1743 3.1 20:35:07 10° N 20:38:36 44° ENE 20:41:25 14° SE
Cosmos 2278 Rocket 4.1 20:34:21 10° NW 20:38:49 24° WSW 20:43:16 10° SSW
ISS -3.0 20:36:17 10° WNW 20:39:34 53° N 20:42:50 10° E
NOSS 3-1 (A) 4.3 20:32:36 10° NW 20:39:52 72° SW 20:48:11 12° SSE
Cosmos 972 4.4 20:35:23 10° SSW 20:40:17 86° WNW 20:45:17 10° NNE
USA 245 1.8 20:42:40 18° SSE 20:44:11 68° ENE 20:46:25 10° N
SL-24 R/B - RUBIN 2 4.5 20:39:54 10° SSW 20:45:59 69° SE 20:52:38 10° NE
Cosmos 2297 3.8 20:40:42 10° NNW 20:46:30 77° ENE 20:51:24 14° SE
Cosmos 1634 Rocket 4.2 20:40:47 10° N 20:47:03 63° ENE 20:52:38 13° SSE
Cosmos 2112 Rocket 4.0 20:44:26 10° SSW 20:49:43 71° ESE 20:55:01 10° NNE
USA 290 3.1 20:47:44 10° NW 20:50:50 45° WSW 20:53:34 12° S
Okean-O 4.0 20:47:41 10° SSW 20:51:45 36° W 20:55:50 10° NNW
Cosmos 1766 Rocket 3.6 20:47:18 10° N 20:51:46 73° E 20:55:32 14° SSE
USA 229 DEB 4.1 20:47:28 10° NW 20:54:47 72° NE 21:01:46 14° SE
USA 229 4.1 20:47:33 10° NW 20:54:53 72° NE 21:01:53 14° SE
Cosmos 2034 Rocket 4.4 20:49:50 10° NNW 20:55:59 65° W 21:02:09 10° S
Cosmos 1726 3.0 20:54:23 10° NNE 20:57:07 27° ENE 20:58:35 19° ESE
Spot 2 Rocket 3.5 20:54:06 14° SSE 20:58:30 82° ENE 21:03:34 10° NNW
Cosmos 1680 Rocket 3.6 20:54:40 10° SSW 20:59:58 84° WNW 21:05:17 10° NNE
Meteor 2-6 Rocket 4.3 20:58:34 10° S 21:04:07 60° E 21:09:32 10° NNE
USA 32 4.0 21:01:20 10° S 21:06:32 81° E 21:11:47 10° N
Tsikada Rocket 4.0 21:02:48 10° S 21:08:59 85° W 21:15:17 10° N
Sich 1 4.3 21:09:50 10° NNE 21:13:34 27° ENE 21:15:51 18° ESE
Helios 1B 4.5 21:09:29 10° NNE 21:13:49 81° ESE 21:17:56 11° SSW
MetOp-A 4.0 21:11:24 20° SE 21:14:16 56° ENE 21:18:55 10° N
USA 276 1.1 21:12:33 10° W 21:14:46 68° SSW 21:15:14 47° SE
SL-16 R/B 2.3 21:09:43 10° SSW 21:15:24 80° WNW 21:21:08 10° NNE
Cosmos 2263 4.3 21:10:17 10° NNW 21:15:59 74° ENE 21:20:00 20° SE
MOS 1 Rocket 3.5 21:13:56 18° SSE 21:17:46 89° W 21:23:04 10° NNW
Cosmos 2056 Rocket 4.1 21:13:58 10° NNW 21:19:13 52° WSW 21:23:28 15° S
Lacrosse 5 2.9 21:15:25 10° WNW 21:20:01 34° SW 21:23:08 18° S
Cosmos 1536 3.3 21:16:38 10° N 21:20:22 44° ENE 21:22:15 25° SE
Ariane Rocket 3.2 21:16:49 15° S 21:20:58 67° WSW 21:26:03 10° NNW
Lacrosse 5 rocket 2.0 21:17:09 10° WSW 21:21:24 61° NNW 21:25:34 10° NE
Cosmos 1452 Rocket 3.8 21:18:14 10° NNW 21:23:27 59° ENE 21:26:45 22° SE
Cosmos 1408 Rocket 3.9 21:19:25 10° N 21:23:46 52° ENE 21:26:12 24° SE
Cosmos 44 3.9 21:19:16 10° NW 21:23:53 45° WSW 21:26:45 20° S
Spot 1 3.9 21:20:50 10° NNE 21:24:52 64° ESE 21:27:36 20° S
Meteor 1-27 Rocket 4.5 21:22:18 21° SE 21:25:11 34° E 21:30:06 10° NNE
Okean 1 4.1 21:25:59 26° SE 21:27:18 33° E 21:30:48 10° NNE
Cosmos 1340 4.1 21:25:03 10° NNE 21:27:42 21° ENE 21:28:49 18° E
Cosmos 2221 3.4 21:23:38 10° SSW 21:27:49 48° WNW 21:32:02 10° N
Cosmos 2369 Rocket 2.3 21:23:04 10° NNW 21:28:39 71° WSW 21:32:23 21° SSE
Cosmos 2084 3.8 21:28:38 10° NW 21:32:14 43° SW 21:33:53 26° S
FALCON 9 R/B 4.3 21:29:04 10° SW 21:35:25 35° S 21:54:00 10° ESE
USA 306 3.5 21:38:05 10° WNW 21:41:50 49° NNE 21:45:08 13° E
Cosmos 921 Rocket 3.6 21:38:28 10° SSW 21:42:53 61° WNW 21:47:22 10° NNE
Okean 3 Rocket 4.0 21:41:05 10° NNW 21:45:25 57° W 21:48:06 22° SSW
GEOS 3 Rocket 3.8 21:41:18 10° NE 21:46:30 73° NW 21:51:35 10° SW
ATLAS 3B R/B 4.1 21:44:46 10° NW 21:51:36 34° WSW 21:57:03 15° SSW
Landsat 5 3.4 21:48:48 10° N 21:52:34 69° WNW 21:54:55 22° SSW
SL-8 R/B 4.0 21:49:52 10° SW 21:54:20 42° SSE 21:58:50 10° E
Cosmos 1500 Rocket 3.4 21:51:48 10° N 21:56:09 82° E 21:57:58 34° SSE
Terra 3.4 21:52:39 11° SSW 21:56:26 27° W 22:00:28 10° NW
Cosmos 1943 3.1 21:53:56 15° SSW 21:58:43 77° ESE 22:04:24 10° NNE
Cosmos 1733 3.1 21:55:46 10° N 21:59:16 61° ENE 22:00:07 45° SE
ALOS 2 4.4 21:58:50 16° E 22:00:56 22° ENE 22:04:17 10° NNE
USA 234 4.0 21:55:01 10° E 22:01:19 52° NNE 22:07:38 10° WNW
Cosmos 1048 Rocket 3.9 21:59:00 16° SSW 22:03:10 86° WNW 22:08:20 10° NNE
H-2A R/B 3.3 22:02:30 28° ESE 22:04:01 39° ENE 22:07:56 10° N
Cosmos 1805 Rocket 3.5 22:00:41 10° N 22:05:05 83° E 22:06:48 37° SSE
Cosmos 1842 Rocket 4.4 22:01:41 14° SSW 22:05:16 47° WNW 22:09:34 10° N
Cosmos 494 Rocket 4.4 22:01:22 10° SW 22:06:26 61° WNW 22:11:31 10° NNE
Meteor 1-10 Rocket 4.4 22:02:23 18° SSW 22:06:49 75° WNW 22:12:30 10° N
Lacrosse 4 Rocket 3.6 22:04:28 10° N 22:07:26 19° NE 22:10:26 10° E
Cosmos 1151 Rocket 3.3 22:08:37 37° SE 22:09:55 51° E 22:14:09 10° NNE
Meteor 2-9 Rocket 4.3 22:05:59 10° NNW 22:11:48 81° W 22:14:55 29° S
Cosmos 1666 Rocket 4.4 22:08:58 10° N 22:12:59 36° ENE 22:14:23 29° ESE
Cosmos 1302 Rocket 4.1 22:09:40 10° NNW 22:14:51 66° ENE 22:17:13 32° SE
Meteor 1-11 Rocket 4.1 22:09:29 10° NNW 22:15:01 60° W 22:18:13 26° SSW
ISS -3.9 22:13:00 10° WNW 22:16:19 71° SSW 22:16:32 67° S
Cosmos 1633 Rocket 4.1 22:12:38 10° N 22:16:40 34° ENE 22:18:08 27° ESE
Meteor 2-10 4.2 22:11:21 10° NNW 22:16:59 76° W 22:19:41 31° S
ARIANE 5 R/B 2.5 22:16:04 40° SSE 22:17:37 81° ENE 22:21:58 10° NNW
Meteor 1-19 Rocket 4.3 22:14:06 26° S 22:17:38 85° E 22:23:28 10° NNE
Cosmos 1340 Rocket 2.7 22:17:22 46° SSE 22:18:26 71° E 22:22:26 10° NNE
USA 281 4.1 22:14:24 19° SSW 22:18:33 39° WSW 22:24:40 10° NW
USA 59 Rocket 0.9 22:16:38 10° NNW 22:20:12 43° NE 22:22:59 21° ESE
Cosmos 1331 Rocket 4.3 22:15:47 10° NNW 22:20:56 56° WSW 22:23:13 31° S
NOSS 2-1 (E) 4.3 22:17:29 10° NNW 22:21:04 44° NE 22:23:49 21° ESE
MINOTAUR 4 R/B 3.4 22:19:22 10° NNE 22:22:22 79° ESE 22:22:22 79° ESE
BREEZE-M DEB (TANK) 4.4 22:18:58 10° WSW 22:23:06 88° SSE 22:42:26 10° E
IRIDIUM 103 4.4 22:19:10 10° N 22:24:24 69° E 22:26:30 36° SSE
H-2A R/B 4.3 22:23:21 10° ENE 22:25:24 13° E 22:25:53 13° E
CZ-2C R/B 3.6 22:21:06 10° NNE 22:25:41 81° ESE 22:27:22 39° S
Cosmos 1726 4.0 22:28:01 10° NW 22:30:09 17° W 22:31:07 15° WSW
Cosmos 2195 Rocket 4.5 22:27:33 32° SSE 22:30:26 67° E 22:36:30 10° NNE
NOSS 2-1 (D) 3.9 22:29:03 10° NW 22:32:42 56° NE 22:34:55 28° ESE
Nadezhda 4 Rocket 4.0 22:30:39 25° SSW 22:34:23 77° W 22:40:40 10° N
Molniya-1 4.4 22:35:27 25° SW 22:38:00 82° SE 22:49:19 10° NE
Cosmos 1805 3.0 22:35:51 10° N 22:39:35 83° W 22:40:09 62° S
IRIDIUM 106 4.3 22:37:27 10° N 22:42:43 85° W 22:44:46 38° S
Cosmos 1743 Rocket 4.4 22:42:18 10° NNW 22:46:25 41° W 22:47:56 30° SW
Sich 1 4.2 22:47:07 10° NNW 22:51:03 34° W 22:52:35 26° SW
Spot 2 4.3 22:50:57 45° SSE 22:52:20 75° ENE 22:57:08 10° NNW
Cosmos 1975 2.8 22:52:34 10° NNW 22:56:31 71° W 22:57:09 57° SSW
Lacrosse 5 rocket 3.5 22:56:39 10° WNW 23:00:22 28° N 23:04:00 10° NE
Cosmos 1603 4.2 22:57:29 17° SW 23:01:52 59° WNW 23:07:31 10° NNE
Cosmos 1340 3.8 22:59:02 10° NW 23:01:58 27° W 23:02:14 27° WSW
Cosmos 1626 1.8 23:04:41 72° NE 23:04:41 72° NE 23:07:42 10° NNE
USA 267 3.3 23:00:49 10° ENE 23:07:15 57° SE 23:10:42 28° SSW
Cosmos 1674 3.7 23:07:50 29° E 23:07:50 29° E 23:10:42 10° NNE
NOSS 2-1 (C) 3.4 23:04:08 10° NW 23:07:57 81° SW 23:09:08 50° SSE
Cosmos 2369 Rocket 4.4 23:09:51 10° WNW 23:11:36 11° W 23:13:23 10° WSW
PSLV R/B 4.2 23:08:51 10° NNE 23:13:14 43° E 23:13:59 40° SE
Cosmos 2026 Rocket 4.1 23:12:23 31° SSW 23:15:32 71° W 23:21:50 10° N
USA 306 2.9 23:11:52 10° WNW 23:15:15 52° WSW 23:15:15 52° WSW
Cosmos 1833 Rocket 3.6 23:17:10 28° SE 23:18:15 30° ESE 23:23:05 10° NE
S3M 4.5 23:19:05 10° N 23:25:20 54° ENE 23:28:27 29° SE
NOSS 3-3 (C) 4.1 23:26:06 40° SSE 23:27:22 46° ESE 23:33:21 10° NE
SL-24 R/B 4.3 23:26:04 10° NNE 23:30:30 67° ESE 23:31:32 50° SSE
Cosmos 220 Rocket 4.0 23:30:05 49° SW 23:31:09 74° WNW 23:35:30 10° NNE
Cosmos 1515 Rocket 3.5 23:31:37 58° SSE 23:32:21 73° E 23:36:41 10° NNE
Cosmos 1328 Rocket 4.0 23:33:11 40° SW 23:34:20 52° WNW 23:38:35 10° N
GP-B 4.1 23:30:47 10° NNE 23:34:52 35° E 23:35:54 31° ESE
SL-8 R/B 3.5 23:31:45 10° W 23:36:32 81° S 23:41:19 10° E
ALOS 2 3.0 23:36:13 43° SW 23:36:58 48° W 23:41:15 10° NNW
Cosmos 1553 Rocket 3.9 23:31:13 10° NNW 23:37:17 75° W 23:39:39 39° S
H-2A R/B 4.0 23:38:30 22° WSW 23:39:06 23° W 23:42:29 10° NW
Cosmos 1470 Rocket 3.8 23:36:34 10° NNW 23:40:57 56° W 23:41:47 48° SW
Cosmos 1869 Rocket 4.2 23:37:36 10° N 23:41:50 48° ENE 23:42:58 38° ESE
USA 234 3.2 23:38:50 17° SE 23:44:07 83° SSW 23:50:44 10° WNW
Lacrosse 4 Rocket 1.2 23:42:06 10° NW 23:46:10 71° WSW 23:46:29 67° SSW
Cosmos 1633 Rocket 4.4 23:50:33 10° NNW 23:54:16 27° W 23:55:08 25° WSW
